Stations météo

réclame
Mon MeteoGroup
Aviemore, Grande-Bretagne (3063): Température de l'air & dewpoint: 19.04.2018 13:00:00 - 25.04.2018 13:00:00 (BST)Aviemore, Grande-Bretagne (3063): Température de l'air -20cm & Température de l'air -100cm: 19.04.2018 13:00:00 - 25.04.2018 13:00:00 (BST)Aviemore, Grande-Bretagne (3063): Vitesse du vent & gusts: 19.04.2018 13:00:00 - 25.04.2018 13:00:00 (BST)Aviemore, Grande-Bretagne (3063): Direction du vent: 19.04.2018 13:00:00 - 25.04.2018 13:00:00 (BST)Aviemore, Grande-Bretagne (3063): reduced air pressure: 19.04.2018 13:00:00 - 25.04.2018 13:00:00 (BST)Aviemore, Grande-Bretagne (3063): visibility: 19.04.2018 13:00:00 - 25.04.2018 13:00:00 (BST)Aviemore, Grande-Bretagne (3063): Ensoleillement: 19.04.2018 13:00:00 - 25.04.2018 13:00:00 (BST)Aviemore, Grande-Bretagne (3063): Quantités de précipitations: 19.04.2018 13:00:00 - 25.04.2018 13:00:00 (BST)
Date & Time tt [°C] td [°C] tt -20cm [°C] tt -100cm [°C] ff [km/h] ff [knt] fx [km/h] fx [knt] dd ppp [hPa] vv [km] sd [min] rr [mm]
25.04.2018 13:00:00 10,4 7,0 - - 11 6 - - SSW 1000,3 27 48 0,2
25.04.2018 12:00:00 10,1 4,8 - - 15 8 - - SSW 1000,6 45 24 0,0
25.04.2018 11:00:00 9,4 2,9 - - 11 6 - - SSW 1000,5 50 30 0,0
25.04.2018 10:00:00 8,7 3,4 8,0 6,9 11 6 - - SW 1000,7 35 54 0,0
25.04.2018 09:00:00 8,0 4,1 - - 11 6 - - SW 1000,9 45 54 0,0
25.04.2018 08:00:00 6,5 4,6 - - 11 6 - - SW 1001,3 17 54 0,0
25.04.2018 07:00:00 5,1 3,4 - - 5 3 - - SSW 1001,5 10 24 0,0
25.04.2018 06:00:00 4,4 3,3 - - 8 4 - - SW 1001,8 14 0 0,0
25.04.2018 05:00:00 2,0 1,1 - - 2 1 - - N 1002,4 22 0 0,0
25.04.2018 04:00:00 3,7 2,1 - - 4 2 - - SW 1002,3 35 0 0,0
25.04.2018 03:00:00 3,9 2,5 - - 5 3 - - SW 1002,6 35 0 0,0
25.04.2018 02:00:00 3,0 2,4 - - 4 2 - - W 1003,0 40 0 0,0
25.04.2018 01:00:00 2,0 1,0 - - 4 2 - - WSW 1003,2 45 - 0,0
25.04.2018 00:00:00 3,0 1,1 - - 2 1 - - W 1003,2 45 0 0,0
24.04.2018 23:00:00 3,6 1,8 - - 8 4 - - WSW 1003,3 40 0 0,0
24.04.2018 22:00:00 4,7 2,8 - - 5 3 - - WSW 1003,2 50 0 0,0
24.04.2018 21:00:00 5,9 3,4 - - 8 4 - - SW 1003,2 50 0 0,0
24.04.2018 20:00:00 8,1 2,7 - - 8 4 - - WSW 1002,7 45 0 0,0
24.04.2018 19:00:00 9,0 3,1 - - 8 4 - - SW 1002,7 40 6 0,0
24.04.2018 18:00:00 10,7 3,3 - - 13 7 - - SSW 1002,6 30 54 0,0
24.04.2018 17:00:00 10,5 4,4 - - 11 6 - - SSW 1003,0 45 12 0,2
24.04.2018 16:00:00 8,9 4,3 - - 13 7 - - WSW 1003,5 9 12 0,0
24.04.2018 15:00:00 12,5 3,1 - - 15 8 - - SSW 1003,0 30 42 0,0
24.04.2018 14:00:00 12,4 2,8 - - 21 11 - - SW 1003,4 30 48 0,0
24.04.2018 13:00:00 12,2 1,7 - - 18 10 48 26 WSW 1003,5 30 48 0,0
24.04.2018 12:00:00 10,1 1,7 - - 16 9 - - WSW 1004,5 22 54 0,0
24.04.2018 11:00:00 9,1 1,7 - - 13 7 - - SW 1004,6 35 30 0,0
24.04.2018 10:00:00 9,5 2,1 7,9 6,7 16 9 52 28 SW 1004,2 35 54 0,0
24.04.2018 09:00:00 6,7 4,1 - - 11 6 - - SW 1004,4 50 6 0,0
24.04.2018 08:00:00 6,4 4,4 - - 8 4 - - SSW 1003,9 18 12 0,0
24.04.2018 07:00:00 5,6 3,1 - - 9 5 - - SW 1003,3 45 0 0,2
24.04.2018 06:00:00 5,2 2,8 - - 11 6 - - SW 1003,1 12 0 0,0
24.04.2018 05:00:00 5,7 2,6 - - 15 8 - - SW 1002,9 23 0 0,0
24.04.2018 04:00:00 5,8 2,8 - - 15 8 - - SW 1002,3 40 0 0,0
24.04.2018 03:00:00 5,9 2,2 - - 13 7 - - SW 1002,1 30 0 0,0
24.04.2018 02:00:00 6,3 3,6 - - 11 6 - - SW 1002,2 14 0 0,2
24.04.2018 01:00:00 6,7 2,5 - - 18 10 46 25 SW 1001,7 35 - 0,2
24.04.2018 00:00:00 8,4 6,0 - - 9 5 - - SW 1000,9 22 0 0,0
23.04.2018 23:00:00 8,5 6,3 - - 13 7 - - SW 1000,0 50 0 0,0
23.04.2018 22:00:00 7,6 6,9 - - 13 7 - - SSW 999,2 2,8 0 0,4
23.04.2018 21:00:00 8,1 6,0 - - 9 5 - - SW 999,3 12 0 0,0
23.04.2018 20:00:00 7,9 5,6 - - 13 7 - - SSW 999,9 15 0 0,2
23.04.2018 19:00:00 8,7 4,2 - - 11 6 - - SSW 1000,7 50 0 0,0
23.04.2018 18:00:00 9,0 4,8 - - 13 7 - - SSW 1002,1 30 0 0,0
23.04.2018 17:00:00 10,2 3,8 - - 15 8 - - SSW 1002,4 45 0 0,0
23.04.2018 16:00:00 9,3 4,0 - - 8 4 - - SW 1003,2 40 0 0,0
23.04.2018 15:00:00 9,9 3,0 - - 13 7 - - SW 1003,9 40 0 0,0
23.04.2018 14:00:00 9,8 3,0 - - 18 10 - - SW 1004,4 18 18 0,0
23.04.2018 13:00:00 11,0 5,4 - - 13 7 - - SSW 1004,2 30 12 0,0
23.04.2018 12:00:00 10,6 5,5 - - 15 8 46 25 SW 1004,3 35 12 0,0
23.04.2018 11:00:00 10,4 4,4 - - 15 8 - - WSW 1004,1 40 42 0,0
23.04.2018 10:00:00 9,1 5,2 7,9 6,7 13 7 - - SW 1003,8 40 6 0,0
23.04.2018 09:00:00 8,8 5,5 - - 11 6 - - W 1003,4 7 0 0,2
23.04.2018 08:00:00 8,2 5,6 - - 9 5 - - WSW 1003,1 9 0 0,0
23.04.2018 07:00:00 7,8 5,0 - - 8 4 - - SW 1002,3 50 0 0,0
23.04.2018 06:00:00 7,0 5,0 - - 11 6 - - SW 1001,4 50 0 0,0
23.04.2018 05:00:00 7,1 4,9 - - 9 5 - - SW 1000,9 50 0 0,0
23.04.2018 04:00:00 7,1 5,1 - - 11 6 - - SW 1000,3 50 0 0,0
23.04.2018 03:00:00 6,8 4,9 - - 13 7 - - SW 999,9 45 0 0,0
23.04.2018 02:00:00 6,6 5,2 - - 13 7 - - SSW 999,8 30 0 0,0
23.04.2018 01:00:00 6,5 4,7 - - 9 5 - - SW 999,8 35 - 0,2
23.04.2018 00:00:00 7,2 5,8 - - 9 5 - - SSW 999,9 14 0 0,0
22.04.2018 23:00:00 7,6 5,9 - - 8 4 - - SW 999,9 4,6 0 0,0
22.04.2018 22:00:00 7,7 4,9 - - 11 6 - - SSW 999,9 35 0 0,0
22.04.2018 21:00:00 7,8 4,2 - - 11 6 - - SW 999,8 50 0 0,0
22.04.2018 20:00:00 8,7 4,0 - - 13 7 - - SSW 999,8 50 6 0,0
22.04.2018 19:00:00 9,2 3,0 - - 13 7 - - SW 1000,0 50 30 0,0
22.04.2018 18:00:00 10,1 4,4 - - 11 6 - - SW 1000,1 50 18 0,0
22.04.2018 17:00:00 10,0 4,0 - - 11 6 - - SSW 1000,4 35 36 0,2
22.04.2018 16:00:00 9,5 5,0 - - 15 8 - - SW 1000,4 5 18 0,0
22.04.2018 15:00:00 10,3 6,9 - - 13 7 - - SW 1000,0 30 6 0,2
22.04.2018 14:00:00 9,5 6,6 - - 9 5 - - SW 1000,3 16 0 0,0
22.04.2018 13:00:00 9,4 6,0 - - 9 5 - - SW 1000,2 50 0 0,4
22.04.2018 12:00:00 9,7 5,6 - - 15 8 - - SW 1000,5 9 0 0,0
22.04.2018 11:00:00 11,3 5,2 - - 13 7 - - SSW 1000,4 18 0 0,0
22.04.2018 10:00:00 11,5 5,4 8,0 6,5 13 7 - - SSW 1001,1 22 0 0,0
22.04.2018 09:00:00 11,0 6,2 - - 8 4 - - SW 1001,4 20 0 0,0
22.04.2018 08:00:00 9,7 5,7 - - 8 4 - - WSW 1001,9 17 0 0,0
22.04.2018 07:00:00 8,1 5,5 - - 5 3 - - W 1002,2 21 0 0,0
22.04.2018 06:00:00 6,4 4,2 - - 2 1 - - NNW 1002,6 28 0 0,0
22.04.2018 05:00:00 7,9 5,1 - - 2 1 - - N 1003,4 45 0 0,0
22.04.2018 04:00:00 6,9 3,7 - - 4 2 - - W 1004,8 40 0 0,0
22.04.2018 03:00:00 6,6 2,9 - - 2 1 - - WNW 1005,6 45 0 0,0
22.04.2018 02:00:00 8,2 3,0 - - 2 1 - - W 1006,8 30 0 0,0
22.04.2018 01:00:00 8,2 2,2 - - 5 3 - - SSW 1007,9 50 - 0,0
22.04.2018 00:00:00 9,7 2,6 - - 8 4 - - WSW 1008,6 50 0 0,0
21.04.2018 23:00:00 11,3 3,0 - - 5 3 - - SW 1009,3 50 0 0,0
21.04.2018 22:00:00 10,9 3,8 - - 5 3 - - SW 1009,9 45 0 0,0
21.04.2018 21:00:00 12,7 3,7 - - 5 3 - - SSW 1010,7 40 0 0,0
21.04.2018 20:00:00 13,9 3,5 - - 8 4 - - SSW 1011,3 45 6 0,0
21.04.2018 19:00:00 14,2 4,2 - - 9 5 - - SW 1012,2 35 6 0,0
21.04.2018 18:00:00 14,4 3,2 - - 13 7 - - SSW 1012,5 30 42 0,0
21.04.2018 17:00:00 15,4 4,0 - - 15 8 - - SSW 1013,3 45 60 0,0
21.04.2018 16:00:00 15,8 4,4 - - 16 9 - - SSW 1014,3 35 54 0,0
21.04.2018 15:00:00 15,6 3,8 - - 15 8 - - SSW 1015,4 40 60 0,0
21.04.2018 14:00:00 15,4 3,6 - - 16 9 - - SSW 1016,2 45 60 0,0
21.04.2018 13:00:00 15,0 4,7 - - 11 6 - - SW 1017,0 24 54 0,0
21.04.2018 12:00:00 12,3 3,9 - - 13 7 - - SSW 1018,2 27 48 0,0
21.04.2018 11:00:00 11,8 4,5 - - 11 6 - - SSW 1019,1 50 54 0,0
21.04.2018 10:00:00 10,6 4,1 7,7 6,4 15 8 - - S 1019,6 30 60 0,0
21.04.2018 09:00:00 8,5 4,8 - - 5 3 - - SE 1020,4 50 54 0,0
21.04.2018 08:00:00 4,4 4,4 - - 2 1 - - ESE 1021,4 35 54 0,0
21.04.2018 07:00:00 2,4 2,3 - - 2 1 - - ESE 1022,0 26 30 0,0
21.04.2018 06:00:00 1,5 1,4 - - 8 4 - - WSW 1022,0 23 0 0,0
21.04.2018 05:00:00 0,8 0,7 - - 4 2 - - SW 1022,3 23 0 0,0
21.04.2018 04:00:00 1,1 0,9 - - 4 2 - - NNE 1022,7 22 0 0,0
21.04.2018 03:00:00 0,4 -0,6 - - 2 1 - - N 1022,9 20 0 0,0
21.04.2018 02:00:00 2,0 1,1 - - 2 1 - - NNW 1023,3 30 0 0,0
21.04.2018 01:00:00 2,9 1,3 - - 4 2 - - W 1023,5 40 - 0,0
21.04.2018 00:00:00 4,9 2,3 - - 5 3 - - WSW 1023,2 40 0 0,0
20.04.2018 23:00:00 5,4 2,4 - - 9 5 - - WSW 1022,8 40 0 0,0
20.04.2018 22:00:00 5,9 2,2 - - 5 3 - - W 1022,9 45 0 0,0
20.04.2018 21:00:00 7,1 2,8 - - 5 3 - - SW 1022,6 45 0 0,0
20.04.2018 20:00:00 8,7 3,9 - - 11 6 - - WSW 1021,9 50 6 0,0
20.04.2018 19:00:00 9,7 4,2 - - 13 7 - - SW 1021,2 40 48 0,0
20.04.2018 18:00:00 11,2 5,6 - - 11 6 - - SW 1021,0 40 36 0,2
20.04.2018 17:00:00 10,1 7,4 - - 13 7 - - SW 1020,9 15 18 0,4
20.04.2018 16:00:00 13,1 5,3 - - 15 8 - - SSW 1020,3 50 54 0,0
20.04.2018 15:00:00 13,3 5,3 - - 16 9 - - SSW 1020,2 40 60 0,0
20.04.2018 14:00:00 14,5 5,1 - - 16 9 - - SW 1020,0 30 54 0,0
20.04.2018 13:00:00 13,2 4,3 - - 18 10 - - SW 1019,9 45 24 0,0
20.04.2018 12:00:00 13,2 3,8 - - 15 8 - - SW 1019,6 40 48 0,0
20.04.2018 11:00:00 13,9 4,3 - - 15 8 - - SW 1019,5 35 54 0,0
20.04.2018 10:00:00 12,6 3,7 7,9 6,2 18 10 - - SSW 1019,7 24 60 0,0
20.04.2018 09:00:00 11,2 6,4 - - 13 7 - - SSW 1019,8 35 48 0,0
20.04.2018 08:00:00 9,2 6,9 - - 11 6 - - SW 1020,3 30 54 0,0
20.04.2018 07:00:00 7,2 7,1 - - 8 4 - - WSW 1021,0 22 0 0,0
20.04.2018 06:00:00 5,1 5,0 - - 4 2 - - SW 1021,1 14 0 0,0
20.04.2018 05:00:00 4,9 4,7 - - 2 1 - - E 1021,4 9 0 0,0
20.04.2018 04:00:00 5,2 4,8 - - 2 1 - - NW 1021,5 13 0 0,0
20.04.2018 03:00:00 6,7 6,2 - - 0 0 - - N 1021,7 15 0 0,0
20.04.2018 02:00:00 7,3 6,5 - - 2 1 - - NNW 1022,1 28 0 0,0
20.04.2018 01:00:00 7,7 6,8 - - 2 1 - - N 1022,3 35 - 0,0
20.04.2018 00:00:00 7,9 6,6 - - 4 2 - - WNW 1022,6 40 0 0,0
19.04.2018 23:00:00 7,9 5,7 - - 2 1 - - SSW 1022,6 40 0 0,0
19.04.2018 22:00:00 9,9 6,9 - - 4 2 - - WSW 1022,5 40 0 0,0
19.04.2018 21:00:00 12,3 7,8 - - 5 3 - - SW 1022,0 50 0 0,0
19.04.2018 20:00:00 13,5 7,7 - - 8 4 - - SW 1021,3 50 0 0,0
19.04.2018 19:00:00 14,4 7,4 - - 9 5 - - SW 1021,1 45 30 0,0
19.04.2018 18:00:00 15,2 6,6 - - 13 7 - - WSW 1020,8 45 42 0,0
19.04.2018 17:00:00 16,9 6,7 - - 15 8 - - SW 1020,2 45 60 0,0
19.04.2018 16:00:00 16,9 8,4 - - 15 8 - - SSW 1020,1 35 60 0,0
19.04.2018 15:00:00 17,3 8,5 - - 15 8 - - SW 1020,2 40 48 0,0
19.04.2018 14:00:00 15,8 8,1 - - 15 8 - - SW 1020,0 50 24 0,0
19.04.2018 13:00:00 15,2 9,3 - - 11 6 - - SW 1019,9 40 0 0,0

tt = Température de l'air
td = dewpoint
tt -20cm = Température de l'air -20cm
tt -100cm = Température de l'air -100cm
ff = Vitesse du vent
fx = gusts
dd = Direction du vent
ppp = reduced air pressure
vv = visibility
sd = Ensoleillement
rr = Quantités de précipitations

stations d'obs. à proximité